Regional Weather Roundup
Issued by NWS

Home | Current Version | Previous Version | Graphics & Text | Print | Product List | Glossary On
Versions: 1 2 3 4 5 6 7 8 9 10 11 12 13 14 15 16 17 18 19 20 21 22 23 24 25 26 27 28 29 30 31 32 33 34 35 36 37 38 39 40 41 42 43 44 45 46 47 48 49 50
000
ASUS43 KIND 181009
RWRIN

WEATHER ROUNDUP FOR INDIANA
NATIONAL WEATHER SERVICE INDIANAPOLIS IN
500 AM EST THU JAN 18 2018

NOTE: "FAIR" INDICATES FEW OR NO CLOUDS BELOW 12,000 FEET WITH NO
SIGNIFICANT WEATHER AND/OR OBSTRUCTIONS TO VISIBILITY.

* - STATION DOES NOT REPORT WEATHER SUCH AS PRECIPITATION OR FOG.

+ - STATION NOT QUALITY CONTROLLED BY THE NATIONAL WEATHER SERVICE.
    USE DATA WITH CAUTION...ESPECIALLY DEWPOINT AND RELATIVE
    HUMIDITY OBSERVATIONS.

INZ001>003-010>013-019-020-181100-
NORTHWEST INDIANA

CITY           SKY/WX    TMP DP  RH WIND       PRES   REMARKS
GARY /AIRPORT/ FAIR      19   9  67 SW10G18   30.20F WCI   7
KNOX *+        FAIR      18   9  68 SW17      30.22F WCI   2
LA PORTE +     FAIR      14   8  77 SW13      30.19F WCI  -1
MICHIGAN CITY+ FAIR      16   9  73 SW9       30.19F WCI   4
MONTICELLO +   FAIR      14   7  72 SW14      30.25F WCI   0
RENSSELAER +   FAIR      18   9  68 SW15      30.24F WCI   3
VALPARAISO     FAIR      15   9  76 SW14      30.19F WCI   0

$$

LMZ046-743>745-181100-
SOUTHERN LAKE MICHIGAN

STATION/POSITION TIME  TEMP    WIND        PRES    WAVE
                       AIR SEA DIR/SP/G            HT
                 (UTC) (F)     (DEG/KT/KT) (MB)    (FT)
BURNS HARBOR     0940   17     220/ 13/ 18 1022.7F
MICHIGAN CITY    0940   17     210/ 20/ 23   N/A

$$

INZ004-005-014>016-021>024-181100-
NORTH CENTRAL INDIANA

CITY           SKY/WX    TMP DP  RH WIND       PRES   REMARKS
GOSHEN         FAIR      14   8  77 SW17G26   30.17F WCI  -3
LOGANSPORT +   FAIR      14   9  79 SW15      30.26F WCI  -1
PERU/GRISSOM   FAIR      15   9  76 SW18      30.24F WCI  -2
ROCHESTER +    FAIR      18  10  73 SW17      30.22F WCI   2
SOUTH BEND     FAIR      14   7  73 SW17      30.17F WCI  -3
WARSAW +       FAIR      14   9  79 SW13G21   30.19F WCI   0

$$

INZ006>009-017-018-025>027-181100-
NORTHEAST INDIANA

CITY           SKY/WX    TMP DP  RH WIND       PRES   REMARKS
AUBURN +       FAIR      16 -24  16 SW14G20   30.17F WCI   1
FORT WAYNE     FAIR      14   8  77 SW17      30.21F WCI  -3
HUNTINGTON +   FAIR      14   7  74 SW12G17   30.22F WCI   0
KENDALLVILLE + FAIR      15   9  76 W15G24    30.14F WCI   0

$$

INZ028-029-035-036-043>045-051>053-181100-
WEST CENTRAL INDIANA

CITY           SKY/WX    TMP DP  RH WIND       PRES   REMARKS
CRAWFORDSVL +  FAIR      10   6  86 MISG      30.32S
GREENCASTLE +  FAIR      10   5  79 SW5       30.34F WCI   2
LAFAYETTE      FAIR      15   8  73 SW13      30.29F WCI   1
TERRE HAUTE    FAIR       7   2  80 S7        30.38F WCI  -5

$$

INZ030>032-037>040-046>048-054>057-064-065-181100-
CENTRAL INDIANA

CITY           SKY/WX    TMP DP  RH WIND       PRES   REMARKS
FISHERS *+       N/A     10   9  92 SW7       30.32F WCI   0
FRANKFORT +    FAIR      16   9  75 SW13      30.30F WCI   2
GREENWOOD *+   FAIR      13   7  75 SW8       30.35F WCI   2
INDIANAPOLIS   FAIR      12   6  77 SW15      30.33F WCI  -4
-EAGLE CREEK   FAIR      12   5  73 SW7       30.31F WCI   1
MARION +       LGT SNOW  13   8  79 SW17      30.27F WCI  -4
MT COMFORT *+  FAIR       9   7  92 S10       30.32F WCI  -6
SHELBYVILLE    FAIR       7   2  80 S9        30.35F WCI  -7
ZIONSVILLE +   FAIR      12   6  77 SW14      30.30F WCI  -4

$$

INZ033-034-041-042-049-050-058-059-181100-
EAST CENTRAL INDIANA

CITY           SKY/WX    TMP DP  RH WIND       PRES   REMARKS
MUNCIE         FAIR      13   5  70 SW14      30.26F WCI  -2
RICHMOND +     FAIR      10   7  85 SW16      30.30F WCI  -7

$$

INZ060-061-067>069-081>083-085>088-181100-
SOUTHWEST INDIANA

CITY           SKY/WX    TMP DP  RH WIND       PRES   REMARKS
EVANSVILLE     FAIR       9   6  88 SW7       30.48F WCI  -2
HUNTINGBURG +  FAIR       8   5  87 S7        30.47S WCI  -3
WASHINGTON +   FAIR      11   3  72 S7        30.45S WCI   0

$$

INZ062-063-066-070>080-084-089>092-181100-
SOUTH CENTRAL AND SOUTHEAST INDIANA

CITY           SKY/WX    TMP DP  RH WIND       PRES   REMARKS
BATESVILLE *+    N/A    N/A N/A N/A MISG        N/A
BEDFORD +      FAIR       7   5  92 S3        30.40F
BLOOMINGTON    FAIR      12   5  73 SW10      30.37F WCI  -1
FRENCH LICK *+ FAIR      10   5  79 SW5       30.43S WCI   2
MADISON *+     FAIR      10   7  85 SW7       30.42F WCI   0
NORTH VERNON + FAIR       7   3  85 S8        30.40F WCI  -6
SEYMOUR +      FAIR      10   3  72 SW9       30.42F WCI  -2

$$




USA.gov is the U.S. government's official web portal to all federal, state and local government web resources and services.